QPF
0.00 0.00 0.01 0.01 0.01 0.01 0.01 0.01 0.02 0.02 0.02 0.02 0.02 0.02 0.03 0.03 0.03 0.02 0.01 0.01 0.01 0.01 0.01 0.01 0.03 0.05 0.05 0.05 0.07 0.07 0.05 0.05 0.07 0.07 0.06 0.05 0.04 0.03 0.03 0.03 0.04 0.04 0.03 0.02
0.00 0.00 0.01 0.01 0.01 0.01 0.01 0.01 0.01 0.02 0.02 0.02 0.02 0.02 0.02 0.02 0.02 0.02 0.01 0.01 0.01 0.01 0.01 0.01 0.02 0.02 0.03 0.04 0.04 0.04 0.03 0.03 0.04 0.05 0.06 0.05 0.05 0.05 0.05 0.04 0.04 0.05 0.04 0.02
0.00 0.00 0.00 0.01 0.01 0.01 0.01 0.01 0.02 0.02 0.02 0.02 0.01 0.02 0.02 0.02 0.02 0.02 0.02 0.01 0.01 0.01 0.01 0.01 0.02 0.01 0.02 0.03 0.03 0.04 0.04 0.03 0.03 0.03 0.04 0.05 0.05 0.05 0.05 0.06 0.05 0.05 0.04 0.03
0.00 0.01 0.01 0.01 0.01 0.01 0.01 0.01 0.01 0.01 0.02 0.03 0.02 0.02 0.02 0.02 0.02 0.02 0.01 0.01 0.01 0.01 0.01 0.01 0.02 0.02 0.02 0.02 0.03 0.04 0.05 0.03 0.03 0.03 0.03 0.03 0.04 0.04 0.04 0.05 0.06 0.05 0.03 0.03
0.01 0.01 0.01 0.01 0.01 0.01 0.01 0.01 0.01 0.01 0.02 0.03 0.02 0.02 0.02 0.02 0.02 0.01 0.01 0.01 0.01 0.01 0.01 0.01 0.02 0.03 0.04 0.04 0.03 0.03 0.03 0.02 0.03 0.04 0.04 0.04 0.03 0.04 0.04 0.05 0.06 0.05 0.03 0.03
0.02 0.02 0.01 0.02 0.01 0.01 0.01 0.01 0.01 0.01 0.02 0.03 0.02 0.02 0.01 0.02 0.02 0.01 0.00 0.00 0.01 0.01 0.01 0.01 0.02 0.03 0.03 0.04 0.03 0.02 0.02 0.02 0.03 0.04 0.05 0.05 0.05 0.05 0.04 0.05 0.05 0.04 0.03 0.02
0.02 0.01 0.01 0.02 0.01 0.02 0.01 0.01 0.02 0.02 0.02 0.02 0.01 0.01 0.01 0.01 0.01 0.00 0.00 0.00 0.00 0.00 0.00 0.01 0.01 0.02 0.03 0.03 0.03 0.02 0.02 0.03 0.04 0.06 0.07 0.07 0.07 0.07 0.05 0.05 0.05 0.04 0.03 0.02
0.02 0.01 0.01 0.02 0.02 0.02 0.01 0.01 0.01 0.01 0.01 0.01 0.00 0.00 0.01 0.00 0.00 0.00 0.00 0.00 0.00 0.00 0.00 0.01 0.01 0.01 0.02 0.03 0.02 0.02 0.02 0.03 0.04 0.07 0.08 0.09 0.09 0.08 0.06 0.05 0.05 0.04 0.04 0.04
0.01 0.01 0.00 0.01 0.01 0.01 0.01 0.01 0.00 0.01 0.00 0.01 0.00 0.00 0.00 0.00 0.00 0.00 0.00 0.00 0.00 0.00 0.01 0.01 0.01 0.01 0.01 0.02 0.03 0.03 0.03 0.03 0.04 0.06 0.06 0.05 0.07 0.07 0.06 0.05 0.05 0.05 0.04 0.05
0.00 0.00 0.00 0.00 0.01 0.01 0.01 0.01 0.01 0.01 0.01 0.01 0.01 0.01 0.01 0.01 0.00 0.00 0.00 0.00 0.00 0.00 0.01 0.01 0.01 0.02 0.01 0.01 0.02 0.03 0.03 0.03 0.03 0.04 0.04 0.04 0.04 0.04 0.05 0.05 0.04 0.04 0.04 0.04
0.00 0.00 0.00 0.00 0.00 0.01 0.01 0.01 0.01 0.01 0.01 0.01 0.01 0.01 0.01 0.01 0.00 0.00 0.00 0.01 0.00 0.00 0.01 0.01 0.01 0.02 0.02 0.01 0.01 0.02 0.03 0.04 0.04 0.04 0.04 0.03 0.03 0.03 0.04 0.05 0.05 0.04 0.04 0.04
0.00 0.00 0.00 0.00 0.00 0.00 0.00 0.01 0.01 0.01 0.01 0.01 0.01 0.01 0.01 0.00 0.00 0.01 0.02 0.01 0.00 0.01 0.01 0.01 0.01 0.01 0.02 0.02 0.02 0.01 0.01 0.02 0.03 0.04 0.04 0.04 0.03 0.03 0.04 0.05 0.05 0.05 0.04 0.04
0.00 0.00 0.00 0.00 0.00 0.00 0.00 0.00 0.00 0.00 0.00 0.00 0.00 0.01 0.01 0.01 0.01 0.02 0.04 0.03 0.01 0.01 0.01 0.01 0.01 0.01 0.02 0.02 0.02 0.01 0.01 0.01 0.02 0.02 0.02 0.03 0.03 0.03 0.04 0.04 0.04 0.04 0.05 0.05
0.00 0.01 0.00 0.00 0.00 0.00 0.00 0.00 0.00 0.00 0.00 0.00 0.01 0.01 0.01 0.01 0.02 0.03 0.05 0.03 0.01 0.01 0.02 0.02 0.01 0.01 0.01 0.01 0.02 0.02 0.01 0.01 0.01 0.01 0.01 0.01 0.01 0.01 0.02 0.02 0.02 0.03 0.04 0.05
0.01 0.01 0.00 0.00 0.00 0.00 0.00 0.00 0.00 0.00 0.00 0.01 0.01 0.01 0.01 0.01 0.01 0.01 0.02 0.01 0.01 0.01 0.02 0.02 0.02 0.01 0.01 0.01 0.01 0.01 0.01 0.01 0.01 0.01 0.01 0.01 0.00 0.00 0.00 0.00 0.01 0.01 0.01 0.02
0.01 0.01 0.00 0.00 0.00 0.00 0.00 0.00 0.00 0.00 0.00 0.00 0.00 0.01 0.01 0.01 0.01 0.01 0.01 0.00 0.00 0.01 0.01 0.01 0.01 0.01 0.00 0.00 0.00 0.00 0.00 0.00 0.00 0.00 0.00 0.00 0.00 0.00 0.00 0.00 0.00 0.00 0.01 0.01
0.01 0.01 0.01 0.01 0.00 0.00 0.00 0.00 0.00 0.00 0.00 0.00 0.00 0.01 0.01 0.01 0.01 0.00 0.00 0.00 0.00 0.00 0.00 0.00 0.00 0.00 0.00 0.00 0.00 0.00 0.00 0.00 0.00 0.00 0.00 0.00 0.00 0.00 0.00 0.00 0.00 0.00 0.00 0.01
0.01 0.01 0.01 0.01 0.01 0.01 0.00 0.00 0.00 0.00 0.00 0.00 0.00 0.00 0.00 0.00 0.00 0.00 0.00 0.00 0.00 0.00 0.00 0.00 0.00 0.00 0.00 0.00 0.00 0.00 0.00 0.00 0.00 0.00 0.00 0.00 0.00 0.00 0.00 0.00 0.00 0.00 0.00 0.00
0.00 0.01 0.02 0.02 0.01 0.00 0.00 0.00 0.00 0.00 0.00 0.00 0.00 0.00 0.00 0.00 0.00 0.00 0.00 0.00 0.00 0.00 0.00 0.00 0.00 0.00 0.00 0.00 0.00 0.00 0.00 0.00 0.00 0.00 0.00 0.00 0.00 0.00 0.00 0.00 0.00 0.01 0.00 0.00
0.01 0.01 0.03 0.02 0.01 0.00 0.00 0.00 0.00 0.00 0.00 0.00 0.00 0.00 0.00 0.00 0.00 0.00 0.00 0.00 0.00 0.00 0.00 0.00 0.00 0.00 0.00 0.00 0.00 0.00 0.00 0.00 0.00 0.00 0.00 0.00 0.00 0.00 0.00 0.00 0.00 0.00 0.00 0.00
0.01 0.02 0.03 0.02 0.01 0.00 0.00 0.00 0.00 0.00 0.00 0.00 0.00 0.00 0.00 0.00 0.00 0.00 0.00 0.00 0.00 0.00 0.00 0.00 0.00 0.00 0.00 0.00 0.00 0.00 0.00 0.00 0.00 0.00 0.00 0.00 0.00 0.00 0.00 0.00 0.00 0.00 0.00 0.00
0.01 0.01 0.01 0.01 0.01 0.00 0.00 0.00 0.00 0.00 0.00 0.00 0.00 0.00 0.00 0.00 0.00 0.00 0.00 0.00 0.00 0.00 0.00 0.00 0.00 0.00 0.00 0.00 0.00 0.00 0.00 0.00 0.00 0.01 0.00 0.00 0.00 0.00 0.00 0.00 0.00 0.00 0.00 0.00
0.00 0.01 0.01 0.00 0.00 0.00 0.00 0.00 0.00 0.00 0.00 0.00 0.00 0.00 0.00 0.00 0.00 0.00 0.00 0.00 0.00 0.00 0.00 0.00 0.00 0.00 0.00 0.00 0.00 0.00 0.00 0.00 0.01 0.01 0.01 0.00 0.00 0.00 0.00 0.00 0.00 0.00 0.00 0.00
0.01 0.01 0.00 0.00 0.00 0.00 0.00 0.00 0.00 0.00 0.00 0.00 0.00 0.00 0.00 0.00 0.00 0.00 0.00 0.00 0.00 0.00 0.00 0.00 0.00 0.00 0.00 0.00 0.00 0.00 0.00 0.01 0.01 0.01 0.01 0.01 0.00 0.00 0.00 0.00 0.00 0.00 0.00 0.00
0.01 0.01 0.01 0.01 0.00 0.00 0.00 0.00 0.00 0.00 0.00 0.00 0.00 0.00 0.00 0.00 0.00 0.00 0.00 0.00 0.00 0.00 0.00 0.00 0.00 0.00 0.00 0.00 0.00 0.00 0.00 0.01 0.01 0.01 0.01 0.01 0.00 0.00 0.00 0.00 0.00 0.00 0.00 0.00
0.01 0.01 0.01 0.01 0.00 0.00 0.00 0.00 0.00 0.00 0.00 0.00 0.00 0.00 0.00 0.00 0.00 0.00 0.00 0.00 0.00 0.00 0.00 0.00 0.00 0.00 0.00 0.00 0.00 0.00 0.00 0.01 0.01 0.01 0.01 0.01 0.00 0.00 0.00 0.00 0.00 0.00 0.00 0.00
MSLP
1021.81 1022.34 1022.92 1023.50 1024.05 1024.53 1024.92 1025.22 1025.43 1025.55 1025.60 1025.60 1025.56 1025.50 1025.42 1025.32 1025.21 1025.11 1025.01 1024.95 1024.94 1025.01 1025.18 1025.45 1025.84 1026.32 1026.87 1027.46 1028.04 1028.57 1029.03 1029.40 1029.68 1029.88 1030.03 1030.16 1030.31 1030.47 1030.67 1030.88 1031.07 1031.23 1031.32 1031.32
1023.27 1023.89 1024.48 1024.98 1025.38 1025.65 1025.79 1025.82 1025.77 1025.67 1025.54 1025.40 1025.26 1025.12 1024.98 1024.83 1024.68 1024.53 1024.40 1024.30 1024.27 1024.33 1024.51 1024.81 1025.23 1025.76 1026.36 1026.99 1027.61 1028.19 1028.70 1029.11 1029.44 1029.70 1029.90 1030.08 1030.26 1030.44 1030.63 1030.81 1030.98 1031.11 1031.17 1031.17
1024.85 1025.61 1026.26 1026.73 1027.02 1027.10 1027.01 1026.78 1026.45 1026.08 1025.70 1025.35 1025.03 1024.75 1024.51 1024.29 1024.10 1023.94 1023.81 1023.73 1023.73 1023.83 1024.04 1024.37 1024.82 1025.36 1025.97 1026.61 1027.25 1027.84 1028.38 1028.84 1029.22 1029.54 1029.80 1030.02 1030.21 1030.40 1030.56 1030.71 1030.83 1030.91 1030.95 1030.95
1026.30 1027.22 1027.96 1028.45 1028.67 1028.62 1028.33 1027.85 1027.25 1026.59 1025.94 1025.32 1024.78 1024.32 1023.95 1023.65 1023.43 1023.28 1023.20 1023.19 1023.27 1023.44 1023.72 1024.09 1024.56 1025.09 1025.68 1026.30 1026.90 1027.49 1028.03 1028.52 1028.94 1029.31 1029.62 1029.89 1030.11 1030.29 1030.43 1030.53 1030.60 1030.65 1030.67 1030.67
1027.42 1028.48 1029.32 1029.85 1030.05 1029.91 1029.47 1028.80 1027.95 1027.04 1026.10 1025.23 1024.45 1023.79 1023.27 1022.90 1022.65 1022.53 1022.53 1022.63 1022.82 1023.11 1023.47 1023.90 1024.38 1024.90 1025.44 1025.99 1026.55 1027.09 1027.61 1028.10 1028.56 1028.98 1029.34 1029.65 1029.89 1030.07 1030.19 1030.27 1030.31 1030.33 1030.34 1030.36
1028.05 1029.22 1030.13 1030.71 1030.92 1030.75 1030.23 1029.43 1028.42 1027.29 1026.13 1025.02 1024.02 1023.17 1022.52 1022.06 1021.80 1021.72 1021.81 1022.03 1022.36 1022.77 1023.23 1023.72 1024.21 1024.70 1025.19 1025.67 1026.14 1026.62 1027.11 1027.59 1028.07 1028.52 1028.93 1029.28 1029.55 1029.74 1029.86 1029.93 1029.95 1029.97 1029.99 1030.05
1028.17 1029.39 1030.34 1030.97 1031.21 1031.06 1030.53 1029.68 1028.58 1027.33 1026.02 1024.73 1023.56 1022.55 1021.77 1021.24 1020.96 1020.92 1021.09 1021.43 1021.89 1022.42 1022.97 1023.52 1024.02 1024.48 1024.91 1025.30 1025.69 1026.10 1026.54 1027.00 1027.48 1027.96 1028.41 1028.80 1029.11 1029.33 1029.46 1029.54 1029.57 1029.60 1029.65 1029.74
1027.90 1029.09 1030.05 1030.70 1030.99 1030.90 1030.42 1029.61 1028.51 1027.23 1025.85 1024.47 1023.19 1022.07 1021.18 1020.58 1020.26 1020.23 1020.45 1020.86 1021.42 1022.04 1022.67 1023.26 1023.77 1024.21 1024.58 1024.91 1025.22 1025.56 1025.94 1026.38 1026.85 1027.35 1027.82 1028.25 1028.60 1028.86 1029.02 1029.12 1029.18 1029.23 1029.31 1029.44
1027.42 1028.53 1029.45 1030.12 1030.46 1030.45 1030.07 1029.36 1028.35 1027.13 1025.77 1024.37 1023.03 1021.83 1020.86 1020.18 1019.80 1019.74 1019.96 1020.40 1020.99 1021.66 1022.33 1022.95 1023.47 1023.89 1024.22 1024.49 1024.75 1025.03 1025.37 1025.77 1026.24 1026.74 1027.23 1027.69 1028.07 1028.36 1028.56 1028.69 1028.78 1028.86 1028.96 1029.12
1026.96 1027.95 1028.81 1029.46 1029.84 1029.92 1029.68 1029.10 1028.24 1027.13 1025.85 1024.49 1023.15 1021.91 1020.87 1020.10 1019.65 1019.51 1019.66 1020.06 1020.63 1021.30 1021.97 1022.60 1023.12 1023.53 1023.85 1024.09 1024.32 1024.56 1024.86 1025.24 1025.69 1026.18 1026.67 1027.14 1027.55 1027.86 1028.08 1028.24 1028.35 1028.46 1028.59 1028.77
1026.73 1027.58 1028.34 1028.96 1029.36 1029.52 1029.39 1028.96 1028.25 1027.28 1026.12 1024.84 1023.53 1022.28 1021.18 1020.33 1019.76 1019.50 1019.54 1019.85 1020.34 1020.96 1021.61 1022.22 1022.74 1023.16 1023.48 1023.72 1023.94 1024.17 1024.45 1024.80 1025.21 1025.68 1026.16 1026.62 1027.02 1027.34 1027.58 1027.76 1027.89 1028.01 1028.16 1028.34
1026.85 1027.56 1028.20 1028.74 1029.13 1029.31 1029.26 1028.94 1028.35 1027.52 1026.47 1025.28 1024.02 1022.77 1021.64 1020.70 1020.01 1019.62 1019.53 1019.71 1020.09 1020.62 1021.22 1021.80 1022.33 1022.76 1023.11 1023.38 1023.61 1023.84 1024.11 1024.43 1024.81 1025.24 1025.68 1026.10 1026.48 1026.80 1027.04 1027.22 1027.36 1027.49 1027.64 1027.82
1027.32 1027.88 1028.40 1028.83 1029.13 1029.28 1029.22 1028.94 1028.43 1027.68 1026.72 1025.61 1024.40 1023.18 1022.02 1021.02 1020.24 1019.73 1019.51 1019.54 1019.81 1020.25 1020.78 1021.34 1021.87 1022.34 1022.72 1023.03 1023.30 1023.54 1023.80 1024.10 1024.44 1024.81 1025.19 1025.57 1025.91 1026.20 1026.43 1026.61 1026.76 1026.90 1027.05 1027.22
1028.06 1028.48 1028.84 1029.11 1029.27 1029.29 1029.15 1028.82 1028.29 1027.56 1026.66 1025.60 1024.45 1023.27 1022.12 1021.10 1020.27 1019.68 1019.35 1019.28 1019.45 1019.80 1020.28 1020.82 1021.36 1021.86 1022.29 1022.65 1022.96 1023.22 1023.48 1023.74 1024.03 1024.34 1024.66 1024.98 1025.27 1025.53 1025.76 1025.94 1026.09 1026.24 1026.39 1026.56
1028.93 1029.19 1029.37 1029.43 1029.38 1029.19 1028.86 1028.40 1027.77 1027.01 1026.10 1025.08 1023.99 1022.87 1021.79 1020.80 1019.98 1019.37 1018.99 1018.86 1018.96 1019.26 1019.70 1020.22 1020.78 1021.31 1021.78 1022.20 1022.54 1022.83 1023.08 1023.31 1023.55 1023.80 1024.06 1024.31 1024.57 1024.80 1025.02 1025.21 1025.38 1025.54 1025.70 1025.87
1029.74 1029.84 1029.81 1029.62 1029.29 1028.83 1028.26 1027.57 1026.79 1025.92 1024.98 1023.99 1022.97 1021.95 1020.97 1020.08 1019.34 1018.77 1018.41 1018.27 1018.35 1018.62 1019.04 1019.55 1020.11 1020.67 1021.18 1021.63 1022.00 1022.30 1022.55 1022.76 1022.95 1023.15 1023.35 1023.57 1023.79 1024.02 1024.23 1024.44 1024.64 1024.82 1025.00 1025.17
1030.31 1030.26 1030.00 1029.54 1028.92 1028.15 1027.28 1026.33 1025.35 1024.36 1023.37 1022.40 1021.46 1020.57 1019.74 1019.01 1018.40 1017.94 1017.66 1017.56 1017.65 1017.91 1018.32 1018.82 1019.38 1019.94 1020.47 1020.93 1021.32 1021.63 1021.86 1022.05 1022.22 1022.38 1022.55 1022.73 1022.95 1023.18 1023.42 1023.66 1023.89 1024.10 1024.30 1024.47
1030.50 1030.29 1029.82 1029.11 1028.19 1027.12 1025.96 1024.76 1023.59 1022.48 1021.45 1020.51 1019.68 1018.94 1018.29 1017.76 1017.32 1017.01 1016.84 1016.81 1016.93 1017.19 1017.58 1018.05 1018.59 1019.13 1019.64 1020.10 1020.49 1020.79 1021.03 1021.20 1021.35 1021.49 1021.64 1021.83 1022.05 1022.30 1022.57 1022.85 1023.12 1023.36 1023.57 1023.74
1030.18 1029.85 1029.21 1028.29 1027.14 1025.82 1024.43 1023.03 1021.71 1020.51 1019.47 1018.59 1017.88 1017.30 1016.86 1016.52 1016.28 1016.12 1016.06 1016.10 1016.24 1016.50 1016.84 1017.27 1017.75 1018.24 1018.72 1019.15 1019.52 1019.82 1020.04 1020.21 1020.36 1020.50 1020.66 1020.86 1021.10 1021.38 1021.69 1022.00 1022.30 1022.57 1022.79 1022.95
1029.31 1028.89 1028.15 1027.10 1025.80 1024.34 1022.80 1021.29 1019.90 1018.68 1017.67 1016.88 1016.29 1015.90 1015.63 1015.48 1015.40 1015.38 1015.41 1015.50 1015.64 1015.86 1016.14 1016.49 1016.89 1017.30 1017.72 1018.10 1018.44 1018.72 1018.94 1019.12 1019.28 1019.43 1019.61 1019.83 1020.09 1020.40 1020.74 1021.08 1021.41 1021.68 1021.90 1022.05
1027.87 1027.43 1026.66 1025.57 1024.25 1022.76 1021.20 1019.68 1018.31 1017.13 1016.20 1015.52 1015.08 1014.83 1014.72 1014.72 1014.76 1014.83 1014.91 1015.00 1015.11 1015.26 1015.45 1015.70 1015.99 1016.31 1016.65 1016.98 1017.29 1017.55 1017.77 1017.96 1018.14 1018.31 1018.51 1018.75 1019.03 1019.36 1019.71 1020.06 1020.39 1020.66 1020.87 1020.99
1025.89 1025.49 1024.77 1023.76 1022.52 1021.11 1019.66 1018.25 1016.98 1015.92 1015.11 1014.56 1014.24 1014.11 1014.12 1014.21 1014.32 1014.43 1014.51 1014.56 1014.60 1014.66 1014.74 1014.87 1015.05 1015.28 1015.54 1015.81 1016.09 1016.34 1016.57 1016.77 1016.96 1017.16 1017.37 1017.62 1017.91 1018.23 1018.58 1018.92 1019.23 1019.49 1019.67 1019.77
1023.48 1023.16 1022.56 1021.71 1020.64 1019.44 1018.17 1016.96 1015.87 1014.98 1014.32 1013.89 1013.68 1013.65 1013.72 1013.84 1013.97 1014.06 1014.09 1014.08 1014.03 1013.98 1013.95 1013.97 1014.05 1014.19 1014.39 1014.61 1014.86 1015.11 1015.35 1015.57 1015.78 1015.99 1016.22 1016.47 1016.75 1017.05 1017.36 1017.67 1017.95 1018.18 1018.34 1018.41
1020.77 1020.56 1020.13 1019.48 1018.66 1017.72 1016.72 1015.74 1014.88 1014.18 1013.67 1013.37 1013.24 1013.25 1013.34 1013.46 1013.54 1013.58 1013.55 1013.45 1013.32 1013.17 1013.04 1012.97 1012.97 1013.05 1013.20 1013.41 1013.65 1013.90 1014.15 1014.39 1014.62 1014.84 1015.07 1015.30 1015.55 1015.82 1016.09 1016.35 1016.59 1016.78 1016.91 1016.97
1017.96 1017.85 1017.59 1017.18 1016.62 1015.96 1015.24 1014.53 1013.90 1013.38 1013.02 1012.80 1012.72 1012.74 1012.81 1012.88 1012.91 1012.87 1012.77 1012.60 1012.39 1012.17 1011.98 1011.86 1011.82 1011.87 1012.00 1012.20 1012.45 1012.72 1012.99 1013.26 1013.50 1013.73 1013.94 1014.16 1014.37 1014.59 1014.81 1015.03 1015.21 1015.36 1015.47 1015.53
1015.22 1015.21 1015.11 1014.91 1014.60 1014.20 1013.73 1013.27 1012.83 1012.47 1012.21 1012.05 1011.98 1011.97 1011.99 1012.00 1011.96 1011.86 1011.69 1011.47 1011.22 1010.97 1010.77 1010.63 1010.59 1010.64 1010.78 1011.01 1011.28 1011.58 1011.88 1012.16 1012.42 1012.66 1012.86 1013.05 1013.23 1013.41 1013.58 1013.74 1013.89 1014.01 1014.09 1014.14
Thickness
5564 5558 5551 5554 5557 5560 5562 5560 5557 5557 5552 5552 5552 5556 5562 5564 5563 5563 5564 5565 5565 5565 5566 5565 5564 5563 5561 5559 5558 5558 5557 5557 5557 5556 5555 5555 5554 5554 5554 5554 5553 5553 5552 5551
5554 5546 5548 5552 5554 5555 5555 5552 5551 5550 5548 5547 5548 5552 5560 5564 5564 5565 5564 5563 5562 5562 5562 5561 5559 5557 5555 5553 5552 5551 5551 5552 5552 5552 5551 5550 5550 5549 5549 5548 5548 5548 5547 5545
5548 5542 5545 5547 5547 5548 5548 5546 5545 5541 5541 5544 5542 5549 5560 5565 5566 5564 5562 5562 5561 5560 5558 5556 5554 5552 5549 5548 5547 5547 5546 5546 5547 5547 5545 5544 5543 5543 5543 5543 5542 5542 5541 5539
5539 5539 5540 5540 5540 5541 5540 5540 5540 5538 5534 5539 5544 5537 5560 5562 5559 5559 5558 5557 5557 5557 5556 5553 5551 5548 5546 5544 5542 5541 5541 5541 5541 5541 5540 5538 5537 5537 5539 5539 5537 5536 5534 5533
5530 5530 5532 5533 5532 5533 5532 5534 5535 5535 5534 5533 5541 5534 5551 5561 5555 5556 5557 5556 5555 5555 5553 5550 5548 5545 5543 5540 5539 5537 5536 5536 5537 5536 5535 5534 5533 5533 5533 5532 5531 5530 5528 5526
5524 5525 5524 5526 5528 5530 5529 5530 5530 5529 5528 5526 5541 5536 5544 5550 5557 5559 5558 5555 5553 5552 5549 5548 5545 5542 5539 5537 5535 5534 5533 5532 5532 5532 5530 5530 5529 5529 5528 5526 5525 5523 5521 5519
5526 5522 5520 5522 5524 5526 5528 5526 5526 5524 5520 5527 5540 5534 5539 5559 5562 5559 5556 5553 5550 5548 5545 5543 5541 5538 5536 5534 5531 5530 5529 5528 5528 5527 5526 5525 5525 5523 5522 5521 5519 5517 5515 5513
5527 5522 5515 5515 5518 5519 5524 5528 5524 5523 5528 5533 5530 5529 5545 5557 5557 5555 5555 5552 5548 5545 5542 5540 5537 5535 5532 5530 5528 5526 5525 5524 5523 5522 5521 5520 5520 5519 5517 5515 5514 5512 5510 5508
5527 5519 5511 5510 5512 5514 5521 5518 5521 5518 5505 5509 5531 5543 5548 5550 5550 5549 5548 5546 5542 5540 5538 5535 5533 5531 5528 5526 5524 5522 5521 5520 5519 5517 5515 5514 5513 5512 5511 5510 5508 5506 5504 5501
5524 5510 5507 5505 5505 5505 5508 5513 5510 5512 5511 5516 5535 5543 5542 5544 5544 5544 5542 5540 5538 5536 5534 5531 5528 5527 5525 5523 5520 5518 5516 5515 5513 5510 5509 5508 5507 5505 5504 5502 5501 5499 5496 5494
5520 5506 5498 5498 5495 5503 5500 5505 5506 5508 5511 5516 5520 5535 5554 5551 5547 5543 5540 5538 5535 5533 5530 5527 5524 5522 5520 5518 5515 5513 5511 5509 5507 5505 5503 5501 5500 5498 5496 5495 5494 5492 5489 5486
5510 5507 5497 5497 5493 5491 5496 5503 5503 5502 5502 5507 5515 5526 5551 5549 5545 5542 5538 5536 5533 5530 5527 5524 5521 5518 5515 5512 5510 5507 5505 5503 5502 5499 5497 5495 5493 5490 5489 5487 5486 5483 5481 5478
5503 5498 5492 5497 5487 5478 5485 5493 5497 5498 5498 5497 5499 5521 5542 5540 5539 5537 5533 5530 5527 5524 5522 5518 5515 5512 5510 5507 5505 5502 5500 5498 5496 5493 5490 5488 5485 5483 5482 5479 5476 5473 5471 5468
5500 5488 5493 5502 5505 5489 5481 5485 5487 5487 5485 5494 5505 5520 5534 5534 5533 5531 5528 5525 5521 5518 5516 5513 5509 5507 5505 5503 5500 5497 5495 5492 5490 5486 5484 5481 5478 5476 5473 5470 5467 5464 5461 5458
5486 5480 5477 5481 5486 5485 5486 5487 5482 5482 5491 5497 5513 5518 5531 5532 5530 5529 5526 5523 5518 5515 5512 5508 5504 5502 5499 5497 5494 5492 5489 5486 5483 5480 5477 5474 5471 5467 5464 5461 5458 5455 5451 5448
5474 5470 5465 5466 5472 5473 5474 5483 5484 5485 5489 5494 5503 5514 5531 5530 5527 5524 5521 5517 5514 5510 5507 5504 5500 5497 5494 5492 5489 5486 5483 5479 5476 5472 5469 5465 5461 5458 5455 5452 5449 5445 5441 5437
5461 5457 5461 5470 5459 5460 5467 5486 5487 5489 5494 5498 5502 5519 5527 5523 5521 5518 5515 5513 5509 5506 5503 5499 5496 5492 5489 5485 5483 5479 5475 5471 5467 5463 5459 5456 5452 5448 5445 5442 5439 5435 5431 5427
5452 5452 5452 5455 5453 5463 5505 5510 5503 5499 5502 5504 5510 5518 5520 5517 5516 5513 5511 5507 5504 5501 5497 5494 5490 5486 5482 5478 5475 5472 5467 5463 5458 5454 5450 5446 5442 5439 5435 5432 5428 5425 5421 5417
5451 5449 5450 5447 5453 5471 5500 5504 5500 5494 5500 5509 5508 5512 5511 5509 5503 5504 5507 5504 5500 5496 5492 5487 5483 5479 5475 5471 5467 5462 5457 5452 5448 5444 5441 5437 5432 5428 5425 5421 5418 5414 5410 5406
5440 5441 5443 5446 5453 5464 5506 5503 5503 5496 5495 5513 5510 5508 5504 5497 5490 5501 5503 5498 5493 5488 5483 5479 5475 5470 5465 5461 5457 5452 5446 5442 5439 5435 5431 5427 5423 5419 5415 5411 5407 5403 5399 5396
5421 5426 5431 5441 5447 5469 5498 5491 5490 5486 5505 5513 5510 5506 5500 5493 5496 5496 5493 5487 5483 5478 5474 5470 5465 5459 5455 5451 5446 5441 5436 5433 5430 5425 5421 5417 5413 5409 5405 5400 5396 5392 5388 5383
5429 5426 5426 5435 5441 5468 5483 5477 5483 5497 5503 5504 5500 5497 5493 5489 5486 5484 5480 5476 5471 5466 5462 5458 5453 5448 5443 5439 5435 5430 5426 5424 5419 5414 5411 5407 5403 5398 5394 5389 5384 5380 5375 5370
5439 5450 5449 5455 5473 5487 5477 5480 5485 5487 5488 5488 5486 5484 5481 5477 5474 5471 5467 5463 5459 5455 5450 5445 5440 5436 5431 5427 5423 5419 5415 5411 5407 5403 5399 5395 5391 5387 5382 5377 5372 5367 5363 5358
5437 5445 5445 5446 5463 5471 5469 5470 5471 5472 5471 5472 5470 5467 5466 5464 5461 5457 5452 5448 5445 5441 5437 5432 5428 5423 5419 5415 5411 5407 5403 5399 5394 5391 5388 5384 5379 5375 5370 5365 5360 5355 5351 5346
5439 5428 5431 5437 5454 5456 5458 5459 5461 5459 5456 5454 5454 5452 5450 5449 5446 5442 5439 5436 5433 5430 5424 5420 5415 5412 5408 5403 5398 5394 5390 5386 5382 5379 5375 5371 5366 5362 5357 5353 5348 5344 5340 5335
5434 5428 5432 5447 5453 5450 5455 5454 5451 5447 5445 5443 5440 5438 5437 5435 5433 5430 5427 5424 5420 5416 5412 5407 5403 5399 5395 5391 5387 5382 5378 5374 5371 5367 5363 5358 5353 5349 5344 5339 5335 5331 5327 5323